RH
22 25 24 23 23 27 36 25 21 19 19 15 13 7 5 6 6 5 5 4 3 3 3 4 6 8 13 25 100 100 92 78 64 100 100 100 99 100 100 100 78 54 100
24 25 24 23 26 37 29 23 21 22 19 15 13 6 5 7 7 6 5 4 3 3 4 5 7 8 17 25 100 100 100 86 98 100 100 100 92 100 100 90 60 92 100
24 25 24 25 32 38 24 23 24 24 19 15 14 7 5 7 7 6 5 4 4 4 5 7 8 8 19 37 100 100 100 100 100 100 100 100 100 100 82 82 65 74 100
25 25 24 27 43 28 25 24 26 24 20 16 15 8 6 8 8 6 5 4 4 4 6 8 9 8 19 85 100 100 99 100 100 100 100 93 96 99 98 81 64 70 88
25 24 26 38 37 26 27 25 26 24 21 16 16 8 6 8 8 6 5 5 4 6 8 8 10 10 19 100 100 98 80 100 100 100 99 100 99 99 100 77 62 72 84
22 25 33 46 27 27 26 25 26 25 21 15 15 11 7 8 8 7 6 6 5 7 10 10 10 14 21 100 100 99 100 100 100 100 100 100 100 100 100 76 61 58 69
23 29 44 30 26 27 26 27 28 25 22 15 14 14 7 8 9 8 7 7 6 8 11 12 10 17 55 100 100 100 100 100 100 100 100 100 100 99 100 91 69 60 68
25 42 36 26 26 26 25 26 27 26 23 17 14 16 8 8 10 9 8 8 8 9 11 14 12 22 91 100 100 100 100 100 100 100 100 100 100 97 84 85 85 69 78
45 40 27 26 26 24 23 23 25 27 24 18 15 15 11 8 10 10 9 9 9 10 12 15 16 86 100 100 98 100 100 100 100 100 90 97 100 100 89 88 76 100 61
46 29 26 26 26 24 23 23 24 26 26 19 15 14 15 8 10 11 10 9 10 10 12 15 18 99 100 100 100 100 100 100 100 90 75 73 77 76 100 100 100 100 90
30 27 26 27 26 26 25 24 23 25 26 22 17 13 14 9 9 12 11 10 10 11 13 15 18 93 100 100 100 100 100 100 100 94 68 61 75 56 90 100 100 98 66
27 27 28 28 28 26 26 25 23 23 26 25 19 14 13 14 9 12 12 11 11 12 14 16 29 100 100 100 100 100 100 100 89 100 75 60 96 70 100 89 100 97 93
31 29 30 29 26 25 23 23 22 21 23 26 23 17 14 14 12 10 13 12 11 13 14 20 35 100 100 100 100 100 100 100 85 97 100 74 98 100 92 67 100 100 98
30 30 29 27 25 22 21 22 22 21 20 23 27 23 16 14 15 9 12 13 12 13 15 17 34 100 100 100 100 100 100 100 100 78 89 100 100 100 100 100 100 92 100
30 28 28 26 25 24 23 22 21 20 19 19 22 26 20 15 14 16 10 13 13 12 16 19 29 100 100 100 100 100 100 100 100 75 83 100 100 100 100 100 99 95 96
29 27 27 27 27 26 25 25 23 21 20 19 19 22 26 22 16 15 16 10 14 13 13 16 61 98 100 100 100 100 100 100 100 100 98 93 98 100 100 99 100 100 95
28 27 27 27 27 28 30 30 28 26 22 20 20 20 21 26 25 17 15 16 11 15 14 15 20 85 100 100 100 100 100 100 100 100 100 100 100 99 100 100 100 100 100
29 28 28 28 28 31 32 31 31 29 28 28 24 20 19 20 24 26 19 15 17 11 14 14 15 20 96 100 100 100 100 100 100 100 100 100 100 95 100 100 100 100 100
30 30 30 29 31 32 35 32 35 36 33 31 30 25 22 19 19 21 26 21 17 18 12 13 14 14 23 90 100 100 100 100 100 100 100 100 100 100 98 99 100 100 100
31 34 36 34 36 36 35 38 34 32 32 33 35 31 28 22 19 18 19 23 24 18 17 17 12 15 21 77 95 100 100 100 100 100 100 100 100 100 100 100 100 100 100
39 41 40 39 42 40 42 36 33 35 33 30 34 31 30 28 25 21 18 18 20 24 21 17 18 14 14 15 36 35 87 100 100 100 100 100 100 100 100 100 100 100 100
45 49 54 53 53 50 44 37 40 41 34 33 32 31 31 32 30 27 25 22 18 18 21 25 20 16 18 13 14 15 15 18 38 86 100 100 100 100 100 100 100 100 100
42 50 56 63 62 56 39 35 46 41 41 42 40 40 37 29 31 31 29 25 22 20 18 18 22 24 20 17 19 15 13 15 15 16 34 66 99 100 100 100 100 100 100
45 52 57 63 73 50 42 41 48 54 52 46 58 45 39 34 31 30 31 29 24 22 21 18 18 19 23 24 23 18 18 19 14 13 15 17 41 87 100 100 100 100 100
69 69 66 58 80 64 44 48 55 53 56 52 56 58 49 42 44 38 34 32 32 28 24 24 24 19 18 19 22 24 24 23 19 18 20 16 14 14 16 15 14 15 17
67 73 70 81 82 75 65 63 66 61 61 55 56 52 51 57 51 46 36 33 31 32 33 30 28 29 27 22 20 19 20 21 23 24 25 22 19 18 18 15 13 14 15
Wind_Speed
41 47 55 61 67 74 78 76 77 77 76 69 62 56 45 36 26 16 7 9 21 37 43 59 80 116 139 143 138 132 121 114 114 103 97 85 77 70 69 66 66 63 57
41 49 56 62 68 76 73 74 75 74 72 64 58 52 42 33 24 14 8 14 29 46 55 66 88 117 141 138 131 129 121 115 107 104 98 80 74 71 70 68 68 62 58
43 50 56 62 70 71 71 72 71 70 68 60 54 51 40 31 22 14 11 18 36 54 59 74 94 121 139 135 127 126 119 113 110 103 97 90 76 73 72 74 69 64 60
45 50 56 64 70 67 69 69 66 66 65 58 51 46 36 28 20 12 12 22 42 55 60 78 103 122 137 135 126 123 117 112 108 102 93 82 84 77 75 72 69 64 56
45 51 57 65 63 65 66 64 62 62 62 55 49 43 34 24 17 12 13 25 46 56 65 82 109 127 132 133 122 117 117 109 102 103 96 80 79 76 72 67 67 63 58
46 52 58 60 60 62 61 61 60 60 59 54 47 42 32 24 17 12 14 27 49 60 69 88 114 128 126 131 117 114 113 105 105 103 90 81 77 73 68 65 65 64 58
47 53 57 55 58 59 57 56 56 57 57 52 45 39 31 22 15 12 16 30 50 64 74 93 112 126 123 127 113 113 110 108 101 97 90 82 77 74 69 65 61 58 57
47 53 51 54 55 55 53 52 53 55 55 50 43 37 30 21 14 13 18 31 49 65 74 96 110 122 124 123 114 109 109 110 102 99 94 86 77 72 69 65 60 61 59
47 48 50 51 51 51 51 51 51 52 53 49 42 35 29 20 13 12 19 31 47 63 78 101 109 122 120 116 111 106 109 106 98 100 96 89 78 73 68 65 59 61 61
44 46 47 47 48 49 50 50 49 49 52 49 41 34 28 19 12 11 17 31 44 62 82 98 107 122 120 114 109 108 104 103 96 96 95 90 83 77 74 72 73 63 59
40 42 44 45 47 48 49 48 49 47 49 50 43 34 26 21 13 11 16 29 45 63 80 93 105 119 117 112 107 109 99 96 92 87 91 90 84 80 80 80 72 64 61
38 40 43 45 45 45 46 46 47 47 46 48 44 35 28 22 15 11 15 28 45 65 79 90 106 121 115 110 108 105 101 95 94 88 86 87 82 82 79 80 74 69 67
37 40 41 41 43 46 48 48 48 48 45 44 45 37 30 23 17 13 15 25 43 66 77 86 97 119 114 111 109 104 100 95 95 92 90 86 86 86 83 81 76 70 68
37 39 39 42 45 48 51 50 50 49 48 44 42 41 32 23 16 12 16 22 38 63 77 80 97 115 113 108 109 104 102 99 97 95 94 90 91 90 82 86 84 82 80
37 40 41 44 49 54 54 55 54 54 51 49 43 39 37 26 20 14 12 21 31 54 79 80 94 107 111 107 105 106 100 96 97 93 93 96 95 93 89 82 79 87 87
37 43 47 52 56 59 61 63 62 57 56 52 47 42 38 35 24 16 11 14 27 42 68 83 90 107 114 109 105 106 104 98 97 95 94 97 94 93 94 93 91 83 83
40 45 51 53 57 64 66 68 67 65 64 60 53 47 42 34 30 20 12 11 18 32 51 81 87 101 111 114 108 107 105 103 103 99 98 99 98 96 94 97 97 95 90
46 47 52 57 61 67 70 76 75 70 71 70 63 54 45 39 31 25 18 9 12 21 38 57 87 93 109 119 115 111 108 105 102 102 99 99 98 100 99 98 101 99 99
44 49 52 58 63 65 70 73 77 81 77 73 70 63 56 45 37 29 21 14 5 13 21 39 57 88 96 113 120 115 117 113 112 110 110 109 109 106 106 105 105 107 104
44 51 54 55 59 63 67 69 75 78 82 81 76 71 64 56 45 36 27 17 10 4 12 23 37 53 89 99 117 118 116 118 118 119 116 117 117 116 112 110 112 113 113
45 48 54 55 57 59 63 69 72 76 78 82 84 81 73 64 58 49 37 26 16 8 1 12 23 35 54 72 105 107 113 117 121 122 124 123 122 121 123 124 120 119 116
43 47 49 55 57 58 61 66 72 75 78 81 85 85 84 76 70 60 52 41 29 17 7 5 12 22 33 47 67 85 103 109 113 126 127 132 130 129 128 130 131 129 128
40 45 49 50 55 55 58 62 66 72 75 78 83 85 87 84 77 74 65 52 42 31 21 12 10 14 21 30 40 52 68 87 104 110 121 130 136 138 139 140 140 140 140
39 43 46 50 53 55 57 63 65 68 71 76 77 81 85 88 86 84 78 71 59 46 35 24 15 13 17 22 29 37 45 55 65 81 92 108 126 134 141 145 147 144 147
36 41 45 48 50 54 54 59 66 68 70 75 76 79 82 85 87 88 85 81 73 60 51 40 29 21 18 19 22 28 33 41 49 56 64 73 86 101 106 114 129 139 142
33 37 41 45 48 50 52 57 63 70 71 75 76 80 81 81 83 88 88 85 82 72 61 52 44 34 26 21 23 25 29 34 39 43 49 57 65 73 79 87 95 107 113
Wind_Direction
333 334 333 334 337 338 340 342 343 344 347 347 348 349 352 357 1 6 50 135 155 156 162 166 170 173 169 169 166 169 166 167 172 174 178 177 182 185 188 192 191 188 188
335 335 335 337 338 340 344 345 346 346 349 350 350 353 358 3 7 19 72 137 156 154 157 166 171 174 169 170 167 173 168 171 174 175 178 176 175 183 189 191 188 186 189
336 336 336 338 340 344 347 348 348 348 351 353 355 356 1 8 15 32 88 141 155 155 158 168 171 174 169 170 169 172 172 172 175 176 177 181 184 187 190 191 190 190 191
337 336 338 340 344 347 349 348 350 350 353 356 358 359 5 12 20 44 100 148 155 157 162 170 175 174 171 171 172 171 172 175 177 178 178 176 181 184 189 191 191 193 193
337 338 340 344 347 349 349 349 351 354 356 359 1 3 8 19 30 60 108 153 159 160 166 171 177 174 172 173 172 172 175 178 180 181 182 180 186 185 193 193 193 193 197
338 339 342 347 349 350 350 352 355 357 359 1 4 7 10 23 37 71 115 154 162 162 169 172 177 175 174 176 174 173 177 180 184 181 183 185 186 188 191 195 196 197 197
338 340 345 349 351 351 353 357 358 360 2 4 8 10 13 24 46 82 126 155 164 165 171 175 177 175 175 175 175 176 180 183 184 184 184 187 188 189 193 195 197 201 200
339 342 349 352 352 354 358 0 2 3 6 7 10 13 16 25 51 91 134 158 165 167 173 177 176 175 176 177 175 178 183 185 187 187 187 189 190 192 196 198 201 205 205
340 346 352 353 355 357 360 3 6 6 8 11 12 17 20 30 54 98 138 163 170 170 174 179 177 177 177 179 179 182 186 187 190 192 192 193 193 194 194 196 199 203 207
344 351 354 356 358 360 3 5 10 10 9 13 16 21 24 32 59 100 139 165 173 174 175 179 180 179 180 181 182 186 188 191 191 194 194 195 195 197 195 199 201 202 202
352 356 358 0 3 5 7 9 12 14 12 14 19 24 31 39 64 104 144 166 175 177 177 180 181 183 183 185 187 190 192 193 193 192 196 198 197 198 199 202 208 210 206
358 360 2 6 9 11 13 14 16 18 19 15 21 25 33 43 64 111 144 166 177 179 180 182 182 183 185 187 190 192 196 196 195 194 197 198 200 202 205 209 208 212 212
4 6 13 15 14 14 14 14 16 20 22 21 20 27 33 41 55 107 147 168 179 184 183 186 186 185 188 191 194 195 197 199 201 198 201 203 202 203 208 213 213 215 221
17 20 20 20 22 22 23 22 22 22 24 28 26 26 34 40 53 85 142 166 179 187 190 189 189 188 192 196 196 198 200 204 208 203 204 204 205 206 213 214 216 219 223
31 29 28 27 26 26 26 27 27 28 29 29 32 31 30 43 60 70 122 164 178 188 194 193 194 194 193 197 202 200 204 206 209 208 209 207 209 212 214 220 223 222 223
33 32 32 32 33 29 30 30 29 29 31 31 32 35 35 34 44 71 97 153 177 188 194 198 198 196 197 199 203 206 207 211 211 215 215 216 215 217 216 219 222 223 226
39 35 34 36 36 35 33 33 31 30 31 31 32 32 35 39 38 44 85 130 169 185 194 199 200 202 202 203 206 209 212 214 216 218 222 225 223 225 224 221 223 227 229
41 38 39 36 36 37 37 37 35 33 32 31 29 31 32 34 39 42 45 99 152 181 191 199 205 205 206 204 207 211 212 216 218 222 223 223 229 229 228 227 224 226 232
39 36 37 37 38 35 35 33 34 33 33 31 29 28 28 29 30 35 43 53 94 176 189 199 204 210 211 211 210 213 215 217 220 221 224 227 228 232 234 231 233 233 234
39 37 36 34 34 32 31 32 30 30 31 32 31 29 27 25 27 27 28 34 50 116 192 197 206 208 212 213 213 217 220 224 222 222 225 228 231 233 235 239 236 236 237
37 35 33 32 30 29 28 27 27 27 25 27 28 28 26 27 26 24 24 23 21 26 200 206 208 208 213 216 219 221 223 226 225 228 228 229 231 234 237 238 239 242 242
35 32 31 28 27 26 26 25 23 23 23 23 24 24 26 28 26 25 22 19 17 8 347 258 226 220 217 217 219 222 227 227 228 230 232 233 233 235 236 237 240 242 243
29 28 28 25 24 21 22 23 20 20 19 20 19 20 20 23 25 24 20 19 17 10 3 333 282 244 232 228 226 225 227 227 230 232 235 234 235 237 240 240 241 241 242
22 21 21 21 20 17 16 15 16 15 14 16 16 15 17 16 19 19 21 18 14 13 8 357 333 292 269 248 237 235 233 232 233 234 236 237 237 239 241 241 242 245 246
13 11 10 12 13 13 13 10 9 10 9 10 11 11 13 13 12 13 13 15 15 11 7 4 356 336 301 275 267 257 248 243 241 240 240 239 239 240 241 244 245 246 247
7 7 4 4 5 6 6 6 4 4 5 5 7 6 7 8 8 7 7 10 11 12 11 5 355 346 337 314 291 277 268 261 256 253 251 249 247 247 246 247 247 247 248